Location: Monteux
(44.0348°N, 4.9972°E)
Time: 20:01:49
(UTC+00:00)

X-37B - Visible Passes

Search period start: 26 September 2021 00:00
Search period end: 06 October 2021 00:00
Orbit: 381 x 393 km, 45.0° (Epoch: 29 August)

Date Brightness Start Highest point End Pass type
(mag) Time Alt. Az. Time Alt. Az. Time Alt. Az.
26 Sep 4.1 02:44:46 10° E 02:44:46 10° E 02:44:50 10° E visible
26 Sep 0.5 04:17:04 31° W 04:18:24 80° N 04:21:36 10° E visible
27 Sep 2.4 03:21:20 32° E 03:21:20 32° E 03:23:12 10° ENE visible
27 Sep 0.7 04:53:37 10° W 04:56:44 72° N 04:59:54 10° E visible
28 Sep 0.6 03:57:54 60° NW 03:58:18 71° N 04:01:28 10° E visible
29 Sep 3.5 03:02:12 17° ENE 03:02:12 17° ENE 03:03:03 10° E visible
29 Sep 0.5 04:34:29 19° WNW 04:36:37 84° N 04:39:48 10° E visible
30 Sep 1.3 03:38:49 52° ENE 03:38:49 52° ENE 03:41:21 10° E visible
01 Oct 0.5 04:15:30 40° W 04:16:28 74° SSW 04:19:37 10° ESE visible
02 Oct 3.0 03:19:57 22° E 03:19:57 22° E 03:21:15 10° E visible
02 Oct 1.6 04:52:16 14° W 04:54:33 31° SSW 04:57:24 10° SE visible
03 Oct 1.3 03:56:49 43° SSE 03:56:49 43° SSE 03:59:20 10° SE visible
04 Oct 2.2 04:33:47 18° SW 04:34:15 19° SSW 04:36:33 10° SSE visible
05 Oct 3.4 03:38:34 12° SE 03:38:34 12° SE 03:38:51 10° SE visible
